Tracking 18856 objects as of 13-Dec-2017
HD Live streaming from Space Station
objects crossing your sky now

INTELSAT 605

Track INTELSAT 605 now!
INTELSAT 605 is classified as:


NORAD ID: 21653
Int'l Code: 1991-055A
Perigee: 36,035.9 km
Apogee: 36,088.3 km
Inclination: 10.3 °
Period: 1,449.8 minutes
Semi major axis: 42433 km
RCS: 0.754 m2 (medium)
Launch date: August 14, 1991
Source: International Telecommunications Satellite Organization (ITSO)
Launch site: FRENCH GUIANA (FRGUI)

Inclined orbit; 64 C-band, 24 Ku-band; Broadcasting, business services, direct-to-home TV broadcasting, telecommunications, VSAT networks; Atlantic Ocean region.
aabbcc
Your satellite tracking list
Your tracking list is empty




NASA's NSSDC Master Catalog

Two Line Element Set (TLE):
1 21653U 91055A   17346.31349802 -.00000015 +00000-0 +00000-0 0  9995
2 21653 010.3437 039.4311 0006171 228.0694 185.1851 00.99322111096051
Source of the keplerian elements: AFSPC